Location: New Frontier Mobile Home Park
(32.8448°N, 116.9675°W)
Time: 22:07:31
(UTC+00:00)

ARIANE 5 R/B - Pass Details

Date: 14 July 2020
Orbit: 749 x 794 km, 98.6° (Epoch: 05 August)

Event Time Altitude Azimuth Distance (km) Brightness Sun altitude
Rises 11:16:06 0° 0° (N) 3,238 6.4 -17.3°
Reaches altitude 10° 11:18:36 10° 351° (N) 2,315 5.4 -16.9°
Maximum altitude 11:23:05 32° 289° (WNW) 1,309 3.4 -16.2°
Enters shadow 11:25:10 24° 249° (WSW) 1,583 3.6 -15.8°
